User: anonymous   Login
Location: Cornospital
(48.0620°N, 3.3837°W)
Time: 01:40:56
(UTC+00:00)
Language:

Cosmos 292 Rocket - Orbit

View from above orbital plane
View from above orbital plane
View from above satellite
View from above satellite

Ground track
Ground track

The orbit data is extracted from the following two-line orbital elements,

1  4071U 69070B   21259.76747359  .00000156  00000-0  36418-4 0  9999
2  4071  74.0504  27.6689 0015223 325.8478  34.1709 14.62934065764878
Epoch (UTC): 16 September 2021 18:25:09
Eccentricity: 0.0015223
inclination: 74.0504°
perigee height: 673 km
apogee height: 694 km
right ascension of ascending node: 27.6689°
argument of perigee: 325.8478°
revolutions per day: 14.62934065
mean anomaly at epoch: 34.1709°
orbit number at epoch: 76487

The dashed part of the orbit path shows where the satellite is in the earth's shadow,  

DLR